www.pogodaiklimat.ru

Погода и климат >> Архив погоды >> Россия >> Дагестан >> Терекли-Мектеб


ПОГОДА в Терекли-Мектебе

  • Прогноз погоды в Терекли-Мектебе
  • Монитор погоды в Терекли-Мектебе

АРХИВ ПОГОДЫ в Терекли-Мектебе

Время (UTC), дата Ветер
(напр.,м/с)
 
Видим.   Явления Облачность Т
(С)
Тd
(С)
f
(%)
Тe
(С)
Тes
(С)
Комфортность P
(гПа)
Po
(гПа)
Тmin
(С)
Tmax
(С)
R
(мм)
R24
(мм)
S
(см)
03 18.06 Ю 4 10 км ясно +21.3 +16.1 72 +25 +26 комфорт 1010.7 1008.6 +17.1
06 18.06 Ю 2 10 км ясно +28.9 +13.5 39 +31 +43 жарко 1010.6 1008.5
09 18.06 СЗ 1 10 км ясно +31.5 +10.3 27 +31 +54 опасность
солнечного
удара
1010.2 1008.1
12 18.06 СЗ 2 10 км ясно +33.1 +11.5 27 +33 +45 жарко 1009.8 1007.9
15 18.06 ЮВ 6 10 км 3/0
[Ac trans]
+33.2 +10.4 25 +33 +33 жарко 1008.2 1006.1 +34.6
18 18.06 ЮВ 4 10 км 4/0
[Ac trans]
+27.9 +10.6 34 +28 +28 жарко 1009.5 1007.4
21 18.06 Ю 2 н/о н/о +22.4 +11.7 51 +25 +25 комфорт 1009.4 1007.3
00 19.06 Ю 2 н/о н/о +19.4 +10.7 57 +21 +21 комфорт 1009.2 1007.1
03 19.06 В 2 н/о н/о +21.0 +15.5 71 +25 +25 комфорт 1009.5 1007.3 +19.3
06 19.06 В 4 10 км 3/0
[Ac trans]
+30.0 +12.3 34 +31 +38 жарко 1009.4 1007.3
09 19.06 ЮВ 4 10 км 3/0
[Ac trans]
+33.5 +13.2 29 +34 +45 очень
жарко
1009.1 1007.0
12 19.06 З 3 н/о н/о +34.3 +14.2 30 +35 +45 очень
жарко
1009.0 1006.9
15 19.06 В 6 10 км ясно +33.8 +8.1 21 +32 +33 жарко 1007.8 1005.8 +35.1
18 19.06 ЮВ 3 10 км ясно +27.0 +8.5 31 +27 +27 жарко 1008.8 1006.7
21 19.06 Ю 2 10 км ясно +21.5 +9.4 46 +23 +23 комфорт 1008.3 1006.2
00 20.06 Ю 3 10 км ясно +20.3 +10.2 52 +22 +22 комфорт 1008.1 1005.9
03 20.06 ЮВ 3 10 км ясно +22.3 +10.5 47 +24 +26 комфорт 1008.5 1006.3 +20.5
06 20.06 В 5 10 км 4/0
[Ac trans]
+31.6 +8.5 24 +31 +36 жарко 1008.9 1006.8
09 20.06 В 6 10 км 6/0
[Ac trans]
+34.5 +5.3 16 +32 +37 жарко 1008.0 1006.0
12 20.06 В 6-10
{10}
10 км 10/0
[Ac As]
+34.1 +7.4 19 +32 +34 жарко 1007.1 1005.1
15 20.06 В 6
{10}
10 км 10/0
[Ac As]
+32.3 +7.5 21 +31 +31 жарко 1007.8 1005.7 +34.9
18 20.06 ЮВ 3 10 км 8/0
[Ac As]
+27.2 +11.2 37 +28 +28 жарко 1008.9 1006.8
21 20.06 В 2 10 км 8/0
[Ac As]
+23.8 +13.9 54 +26 +26 жарко 1009.1 1007.0
00 21.06 СВ 2 10 км 10/0
[Ac As]
+22.8 +17.9 74 +28 +28 душно 1009.6 1007.5
03 21.06 СВ 2 10 км 10/0
[Ac As]
+23.7 +18.5 73 +28 +29 душно 1010.8 1008.7 +22.1
06 21.06 В 5 10 км 8/0
[Ac As]
+29.7 +17.7 49 +34 +37 очень
душно
1011.3 1009.2
09 21.06 В 5 10 км 8/8 600 м
[Cb cap]
+31.2 +12.7 32 +32 +34 жарко 1011.3 1009.2
12 21.06 В 7-12
{12}
10 км 10/10 600 м
[Cb calv]
+32.8 +10.5 25 +32 +32 жарко 1010.8 1008.8
15 21.06 В 6 10 км {гроза} 9/9 600 м
[Sc diur, vesp]
+31.1 +9.8 27 +31 +31 жарко 1011.6 1009.5 +34.6
18 21.06 В 2 10 км 9/9 600 м
[Sc diur, vesp]
+26.6 +13.5 44 +29 +29 жарко 1012.7 1010.6
21 21.06 штиль 0 10 км 6/0
[Ac As]
+21.1 +14.2 65 +24 +24 комфорт 1012.5 1010.3
00 22.06 С 2 10 км ясно +19.3 +12.9 66 +21 +21 комфорт 1012.2 1010.0
03 22.06 СЗ 1 10 км 8/0
[Ac As]
+21.4 +13.9 62 +24 +25 комфорт 1013.0 1010.9 +17.6
06 22.06 В 1 10 км 6/0
[Ci sp]
+30.8 +10.1 28 +31 +43 жарко 1013.0 1010.9
09 22.06 В 4 10 км 8/0
[Ci sp]
+34.7 +7.7 19 +33 +44 жарко 1011.7 1009.7
12 22.06 В 6
{11}
10 км 8/0
[Ci sp]
+36.1 +9.6 20 +35 +39 очень
жарко
1010.7 1008.7
15 22.06 В 7
{11}
10 км 8/0
[Ci sp]
+33.7 +9.9 23 +33 +33 жарко 1011.4 1009.3 +36.2
18 22.06 СВ 3 10 км ясно +26.7 +17.1 56 +31 +31 душно 1012.4 1010.3
21 22.06 В 1 10 км ясно +21.7 +17.8 78 +26 +26 душно 1011.9 1009.7
00 23.06 С 1 10 км ясно +20.5 +18.3 87 +25 +25 комфорт 1011.4 1009.2
03 23.06 С 1 10 км ясно +22.9 +19.8 83 +30 +32 очень
душно
1012.2 1010.1 +20.1
06 23.06 В 3 10 км ясно +30.1 +21.2 59 +38 +48 очень
душно
1012.3 1010.2
09 23.06 В 5 10 км ясно +35.3 +12.4 25 +35 +46 очень
жарко
1010.9 1008.9
12 23.06 В 8-12
{12}
10 км ясно +36.3 +11.1 22 +36 +38 очень
жарко
1009.9 1007.9
15 23.06 В 8-12
{13}
10 км 6/6 600 м
[Cb cap]
+34.5 +9.4 22 +33 +34 жарко 1010.8 1008.7 +36.7
18 23.06 В 5
{13}
10 км 3/3 600 м
[Cb cap]
+29.1 +14.0 40 +31 +31 жарко 1011.4 1009.3
21 23.06 В 1 10 км ясно +23.9 +18.0 70 +28 +28 душно 1011.7 1009.6
00 24.06 В 2 10 км ясно +21.1 +18.2 84 +25 +25 комфорт 1011.2 1009.1
03 24.06 С 1 10 км ясно +23.1 +19.1 78 +29 +31 очень
душно
1011.2 1009.1 +20.2
06 24.06 СВ 1 10 км 4/0
[Ac trans]
+32.2 +17.9 43 +37 +48 очень
душно
1010.8 1008.8
09 24.06 С 1 10 км 4/0
[Ac trans]
+35.9 +13.9 27 +37 +54 опасность
солнечного
удара
1009.5 1007.5
12 24.06 С 1 10 км 4/0
[Ac trans]
+38.0 +13.6 23 +38 +49 очень
жарко
1008.3 1006.2
15 24.06 штиль 0 10 км 8/5 600 м
[Cb cap Ac trans]
+37.1 +12.4 23 +37 +38 очень
жарко
1007.8 1005.8 +38.8
18 24.06 ЮЗ 8-14
{16}
10 км 10/10 600 м
[Cb cap]
+30.5 +14.8 39 +33 +33 душно 1010.4 1008.3
21 24.06 Ю 3
{15}
10 км {гроза} 6/6 600 м
[Cb cap]
+26.2 +17.0 57 +30 +30 душно 1012.4 1010.2
00 25.06 З 2 10 км 6/6 600 м
[Cb cap]
+23.6 +17.8 70 +28 +28 душно 1011.5 1009.3

 

Местоположение метеостанции Терекли-Мектеб (Дагестан, Россия): широта 44.13 долгота 45.88 высота над уровнем моря 18 м.

В архиве по умолчанию представлена погода в Терекли-Мектебе за последнюю неделю. Архивные данные за месяц целиком и за предыдущие месяцы, начиная с января 2011 года, Вы можете получить, выбрав интересующий диапазон дат из раскрывающегося списка и нажав кнопку "Ввод!".


*Определитесь, кто Вы:
робот инопланетянин человек

Внимание! Время в таблицах - всемирное. Для получения местного времени необходимо прибавить поправку, которая равна 3 ч.

Смотрите также архив погоды в соседних городах и на ближайших метеорологических станциях:

Погода в Рощино (Ставропольский край, Россия) (54 км)
Погода в Южно-Сухокумске (Дагестан, Россия) (61 км)
Погода в Кочубее (Дагестан, Россия) (61 км)
Погода в Наурской (Чечня, Россия) (70 км)
Погода в Кизляре (Дагестан, Россия) (75 км)
Погода в Шелковской (Чечня, Россия) (77 км)
Погода в Гудермесе (Чечня, Россия) (89 км)
Погода в Бабаюрте (Дагестан, Россия) (93 км)
Погода в Грозном (Чечня, Россия) (99 км)
Погода в Моздоке (Северная Осетия, Россия) (107 км)

Пояснения к столбцам:

Ветер - указаны скорость ветра в м/с - средняя за 10 мин, порывы в срок и между сроками (в фигурных скобках) и направление, откуда дует ветер: С - северный, СВ - северо-восточный, В - восточный, ЮВ - юго-восточный, Ю - южный, ЮЗ - юго-западный, З - западный, СЗ - северо-западный.
Видимость - горизонтальная дальность видимости в метрах или километрах. При видимости от 1 до 10 км при отсутствии осадков обычно наблюдается дымка, при ухудшении видимости до 1 км и менее - туман. В сухую погоду видимость может ухудшаться дымом, пылью или мглою.
Явления - указаны атмосферные явления, наблюдавшиеся в срок или в последний час перед сроком; фигурными скобками обозначены явления, наблюдавшиеся между сроками (за 1-3 часа до срока); квадратными скобками обозначены град или гололедные отложения с указанием их диаметра в мм.
Облачность - указаны через наклонную черту общая и нижняя облачность в баллах и высота нижней границы облаков в метрах; квадратными скобками обозначены формы облаков: Ci - перистые, Cs - перисто-слоистые, Cc - перисто-кучевые, Ac - высококучевые, As - высокослоистые, Sc - слоисто-кучевые, Ns - слоисто-дождевые, Cu - кучевые, Cb - кучево-дождевые. Подробнее классификацию облаков см. в Атласе облаков (PDF).
T - Температура воздуха - температура, измеренная на высоте 2 м над землей.
Td - Температура точки росы - температура, при понижении до которой содержащийся в воздухе водяной пар достигнет насыщения.
f - Относительная влажность воздуха - влажноcть воздуха, измеренная на высоте 2 м над землей.
Te - Эффективная температура - температура, которую ощущает одетый по сезону человек в тени. Характеристика душности погоды. При расчете учитывается влияние влажности воздуха и скорости ветра на теплоощущения человека.
Tes - Эффективная температура на солнце - температура, которую ощущает человек, с поправкой на солнечный нагрев. Характеристика знойности погоды. Зависит от высоты солнца над горизонтом, облачности и скорости ветра. Ночью, в пасмурную погоду, а также при ветре 12 м/с и более поправка равна нулю.
P - Атмосферное давление - приведенное к уровню моря атмосферное давление.
Po - Атмосферное давление - измеренное на уровне метеостанции атмосферное давление.
Tmin - Минимальная температура - минимум температуры воздуха на высоте 2 м над землей.
Tmax - Максимальная температура - максимум температуры воздуха на высоте 2 м над землей.
R - Количество осадков - Количество выпавших осадков за период времени, мм. При наведении курсора мыши на число - период времени, за который выпало указанное количество осадков.
R24 - Количество осадков - Количество выпавших осадков за 24 часа, мм.
S - Снежный покров - Высота снежного покрова, см. При наведении курсора мыши на число - состояние снежного покрова и степень покрытия местности в баллах.